Columbus, GA

1:09 PM EST on December 16, 2017 (GMT -0500)
Columbus Metro

Weather History for KCSG - February, 2013

Change the Weather History Date:

Tuesday, February 19, 2013

  Actual Average Record
Temperature  
Mean Temperature 55 °F 52 °F  
Max Temperature 66 °F 63 °F 80 °F (2011)
Min Temperature 44 °F 41 °F 17 °F (1958)
Degree Days  
Heating Degree Days 10 13  
Month to date heating degree days 266 285  
Since 1 July heating degree days 1241 1668  
Cooling Degree Days 0 0  
Month to date cooling degree days 0 0  
Year to date cooling degree days 25 1  
Growing Degree Days 4 (Base 50)    
Moisture  
Dew Point 38 °F    
Average Humidity 58    
Maximum Humidity 93    
Minimum Humidity 22    
Precipitation  
Precipitation 0.37 in 0.17 in 2.65 in (1961)
Month to date precipitation 7.89 2.96  
Year to date precipitation 11.11 6.81  
Snow  
Snow 0.00 in 0.00 in 0.00 in (2002)
Month to date snowfall 0.0 0.0  
Since 1 July snowfall 0.0 0.3  
Snow Depth -    
Sea Level Pressure  
Sea Level Pressure 30.08 in    
Wind  
Wind Speed 7 mph (NW)    
Max Wind Speed 18 mph    
Max Gust Speed 28 mph    
Visibility 8 miles    
Events Rain    
T = Trace of Precipitation, MM = Missing Value Source: NWS Daily Summary

Daily Weather History Graph

Daily Weather History Graph

Search for Another Location

Airport or City:

Trip Planner

Search our weather history database for the weather conditions in past years. The results will help you decide how hot, cold, wet, or windy it might be!

Date:

Astronomy

Feb. 19, 2013 Rise Set
Actual Time 7:18 AM EST 6:29 PM EST
Civil Twilight 6:53 AM EST 6:54 PM EST
Nautical Twilight 6:24 AM EST 7:22 PM EST
Astronomical Twilight 5:56 AM EST 7:51 PM EST
Moon 1:10 PM EST (2/19) 2:39 AM EST (2/19)
Length of Visible Light 12h 00m
Length of Day
11h 10m
Waxing Gibbous, 67% of the Moon is Illuminated
Feb 19
Waxing Gibbous
Feb 25
Full
Mar 4
Last Quarter
Mar 11
New
Mar 19
First Quarter

Hourly Weather History & Observations

Time (EST) Temp. Windchill Dew Point Humidity Pressure Visibility Wind Dir Wind Speed Gust Speed Precip Events Conditions
12:51 AM 46.9 °F - 23.0 °F 39% 30.13 in 10.0 mi South 8.1 mph - N/A   Mostly Cloudy
1:51 AM 46.0 °F 42.5 °F 25.0 °F 44% 30.11 in 10.0 mi South 6.9 mph - N/A   Scattered Clouds
2:51 AM 45.0 °F 41.8 °F 28.0 °F 52% 30.08 in 10.0 mi SSE 5.8 mph - N/A   Mostly Cloudy
3:51 AM 45.0 °F 41.8 °F 34.0 °F 65% 30.06 in 10.0 mi SE 5.8 mph - 0.00 in Rain Light Rain
4:51 AM 46.0 °F - 37.9 °F 73% 30.04 in 9.0 mi Calm Calm - 0.03 in Rain Light Rain
5:51 AM 45.0 °F 41.2 °F 42.1 °F 90% 30.02 in 6.0 mi SE 6.9 mph - 0.08 in Rain Light Rain
6:51 AM 46.0 °F 43.1 °F 43.0 °F 89% 30.02 in 10.0 mi SSE 5.8 mph - 0.09 in Rain Light Rain
7:15 AM 46.4 °F 41.5 °F 44.6 °F 93% 30.06 in 5.0 mi NNW 10.4 mph 18.4 mph 0.02 in Rain Rain
7:51 AM 46.9 °F - 44.1 °F 90% 30.07 in 3.0 mi Calm Calm - 0.11 in Rain Light Rain
7:57 AM 46.4 °F 44.3 °F 44.6 °F 93% 30.06 in 2.5 mi ESE 4.6 mph - 0.02 in Rain Light Rain
8:09 AM 46.4 °F - 44.6 °F 93% 30.07 in 3.0 mi Calm Calm - 0.03 in Rain Light Rain
8:51 AM 48.0 °F - 46.0 °F 93% 30.06 in 3.0 mi Calm Calm - 0.05 in Rain Light Rain
8:58 AM 48.2 °F - 46.4 °F 93% 30.06 in 3.0 mi Calm Calm - 0.00 in Rain Light Rain
9:07 AM 48.2 °F - 46.4 °F 93% 30.06 in 3.0 mi Calm Calm - 0.00 in Rain Light Rain
9:51 AM 50.0 °F - 46.9 °F 89% 30.07 in 2.5 mi NNW 3.5 mph - 0.01 in Rain Light Rain
10:51 AM 51.1 °F - 48.0 °F 89% 30.08 in 2.5 mi Calm Calm - 0.00 in   Overcast
10:58 AM 51.8 °F - 48.2 °F 88% 30.08 in 5.0 mi Calm Calm - N/A   Mostly Cloudy
11:51 AM 55.9 °F - 51.1 °F 84% 30.09 in 10.0 mi West 5.8 mph - N/A   Overcast
12:21 PM 55.4 °F - 51.8 °F 88% 30.09 in 10.0 mi West 4.6 mph - N/A   Overcast
1:12 PM 60.8 °F - 48.2 °F 63% 30.08 in 10.0 mi NW 12.7 mph - N/A   Mostly Cloudy
1:51 PM 62.1 °F - 46.0 °F 56% 30.06 in 10.0 mi NW 8.1 mph - N/A   Scattered Clouds
2:51 PM 64.0 °F - 41.0 °F 43% 30.05 in 10.0 mi NW 10.4 mph 21.9 mph N/A   Scattered Clouds
3:51 PM 64.9 °F - 36.0 °F 34% 30.04 in 10.0 mi WNW 12.7 mph 19.6 mph N/A   Scattered Clouds
4:51 PM 64.9 °F - 25.0 °F 22% 30.06 in 10.0 mi NW 15.0 mph - N/A   Clear
5:51 PM 63.0 °F - 26.1 °F 25% 30.07 in 10.0 mi WNW 12.7 mph - N/A   Clear
7:51 PM 55.0 °F - 26.1 °F 33% 30.13 in 10.0 mi NNW 6.9 mph - N/A   Clear
8:51 PM 52.0 °F - 28.0 °F 40% 30.13 in 10.0 mi NW 5.8 mph - N/A   Clear
9:51 PM 51.1 °F - 26.1 °F 38% 30.15 in 10.0 mi NNW 6.9 mph - N/A   Clear
10:51 PM 48.9 °F - 25.0 °F 39% 30.17 in 10.0 mi North 9.2 mph - N/A   Clear
11:51 PM 46.9 °F - 23.0 °F 39% 30.17 in 10.0 mi North 8.1 mph - N/A   Clear